This is the latest recevied weather packets stored in our database for station/object KC0UFP. If no packets are shown the sender has not sent any weather packets the latest 10 day(s).
| Time | Temp. | Humidity | Pressure | Rain* | Wind** | Luminosity | Snow |
|---|---|---|---|---|---|---|---|
| 1778115998 | 12.78° C | 85% | 1015.4 hPa | 0 mm | - | 0 W/m² | - |
| 1778115694 | 12.78° C | 84% | 1015.5 hPa | 0 mm | - | 1 W/m² | - |
| 1778115392 | 13.33° C | 84% | 1015.2 hPa | 0 mm | - | 2 W/m² | - |
| 1778115088 | 13.33° C | 83% | 1015.4 hPa | 0 mm | - | 4 W/m² | - |
| 1778114785 | 13.33° C | 81% | 1015.2 hPa | 0 mm | - | 5 W/m² | - |
| 1778114483 | 13.33° C | 81% | 1015.2 hPa | 0 mm | - | 5 W/m² | - |
| 1778114179 | 13.33° C | 85% | 1015.4 hPa | 0 mm | - | 7 W/m² | - |
| 1778113874 | 13.33° C | 80% | 1015.4 hPa | 0 mm | - | 9 W/m² | - |
| 1778113570 | 13.33° C | 80% | 1015.5 hPa | 0 mm | - | 11 W/m² | - |
| 1778113266 | 13.33° C | 80% | 1015.5 hPa | 0 mm | - | 14 W/m² | - |
| 1778112963 | 13.89° C | 78% | 1015.5 hPa | 0 mm | - | 19 W/m² | - |
| 1778112661 | 13.89° C | 80% | 1015.3 hPa | 0 mm | - | 20 W/m² | - |
| 1778112356 | 13.89° C | 79% | 1015.1 hPa | 0 mm | - | 28 W/m² | - |
| 1778112052 | 13.89° C | 78% | 1015.2 hPa | 0 mm | - | 37 W/m² | - |
| 1778111750 | 13.89° C | 79% | 1015 hPa | 0 mm | - | 47 W/m² | - |
| 1778111445 | 13.89° C | 78% | 1015.1 hPa | 0 mm | - | 51 W/m² | - |
| 1778111143 | 13.89° C | 77% | 1015 hPa | 0 mm | - | 54 W/m² | - |
| 1778110839 | 13.89° C | 75% | 1014.6 hPa | 0 mm | - | 59 W/m² | - |
| 1778110536 | 13.89° C | 74% | 1014.6 hPa | 0 mm | - | 57 W/m² | - |
| 1778110233 | 13.89° C | 75% | 1014.4 hPa | 0 mm | - | 62 W/m² | - |
| 1778109929 | 13.89° C | 74% | 1014.5 hPa | 0 mm | - | 63 W/m² | - |
| 1778109619 | 13.89° C | 72% | 1014.6 hPa | 0 mm | - | 74 W/m² | - |
| 1778109317 | 13.89° C | 73% | 1014.7 hPa | 0 mm | - | 66 W/m² | - |
| 1778109015 | 13.89° C | 72% | 1014.4 hPa | 0 mm | - | 63 W/m² | - |
| 1778108711 | 13.89° C | 73% | 1014.4 hPa | 0 mm | - | 63 W/m² | - |
* Rain latest hour (hover to see other rain measurements)
** Current wind speed in m/s (hover to see current wind gust speed)